Time,TemperatureF,DewpointF,PressureIn,WindDirection,WindDirectionDegrees,WindSpeedMPH,WindSpeedGustMPH,Humidity,HourlyPrecipIn,Conditions,Clouds,dailyrainin,SoftwareType,DateUTC
2013-02-15 00:00:00,50.5,28.4,30.12,NW,315,3.4,3.4,42,0.00,,,0.00,tws,2013-02-15 07:00:00,
2013-02-15 00:10:00,50.2,28.3,30.12,West,270,3.9,4.9,42,0.00,,,0.00,tws,2013-02-15 07:10:00,
2013-02-15 00:20:00,50.0,28.1,30.12,West,270,3.8,4.6,42,0.00,,,0.00,tws,2013-02-15 07:20:00,
2013-02-15 00:30:00,49.9,28.0,30.12,WNW,292,3.8,4.7,42,0.00,,,0.00,tws,2013-02-15 07:30:00,
2013-02-15 00:40:00,49.9,28.1,30.11,WNW,292,4.1,4.9,42,0.00,,,0.00,tws,2013-02-15 07:40:00,
2013-02-15 00:50:00,49.9,28.0,30.11,WNW,292,3.3,5.0,42,0.00,,,0.00,tws,2013-02-15 07:50:00,
2013-02-15 01:00:00,49.6,28.4,30.11,East,90,1.3,2.8,43,0.00,,,0.00,tws,2013-02-15 08:00:00,
2013-02-15 01:10:00,48.8,28.5,30.12,ESE,112,1.9,2.9,45,0.00,,,0.00,tws,2013-02-15 08:10:00,
2013-02-15 01:20:00,47.7,28.2,30.12,SW,225,1.8,3.2,46,0.00,,,0.00,tws,2013-02-15 08:20:00,
2013-02-15 01:30:00,46.9,28.1,30.13,SE,135,2.4,3.7,47,0.00,,,0.00,tws,2013-02-15 08:30:00,
2013-02-15 01:40:00,46.3,28.2,30.12,SSE,157,1.7,3.5,48,0.00,,,0.00,tws,2013-02-15 08:40:00,
2013-02-15 01:50:00,46.0,28.6,30.13,North,0,1.5,2.6,50,0.00,,,0.00,tws,2013-02-15 08:50:00,
2013-02-15 02:00:00,45.8,28.3,30.13,SW,225,1.8,3.0,50,0.00,,,0.00,tws,2013-02-15 09:00:00,
2013-02-15 02:10:00,45.8,28.6,30.13,SE,135,2.4,3.2,50,0.00,,,0.00,tws,2013-02-15 09:10:00,
2013-02-15 02:20:00,45.8,28.9,30.13,SE,135,3.1,3.6,51,0.00,,,0.00,tws,2013-02-15 09:20:00,
2013-02-15 02:30:00,45.9,29.1,30.12,ESE,112,3.2,4.8,51,0.00,,,0.00,tws,2013-02-15 09:30:00,
2013-02-15 02:40:00,46.1,29.2,30.13,West,270,1.6,2.4,51,0.00,,,0.00,tws,2013-02-15 09:40:00,
2013-02-15 02:50:00,46.0,29.1,30.14,SSW,202,1.5,2.9,51,0.00,,,0.00,tws,2013-02-15 09:50:00,
2013-02-15 03:00:00,45.8,28.8,30.13,SW,225,2.8,3.6,51,0.00,,,0.00,tws,2013-02-15 10:00:00,
2013-02-15 03:10:00,45.6,28.7,30.14,NNW,337,1.8,2.5,51,0.00,,,0.00,tws,2013-02-15 10:10:00,
2013-02-15 03:20:00,45.3,28.4,30.13,NW,315,2.3,4.9,51,0.00,,,0.00,tws,2013-02-15 10:20:00,
2013-02-15 03:30:00,45.2,28.3,30.13,WNW,292,3.6,4.1,51,0.00,,,0.00,tws,2013-02-15 10:30:00,
2013-02-15 03:40:00,45.0,28.2,30.13,NW,315,3.7,4.9,51,0.00,,,0.00,tws,2013-02-15 10:40:00,
2013-02-15 03:50:00,44.7,28.2,30.12,NW,315,4.2,5.4,52,0.00,,,0.00,tws,2013-02-15 10:50:00,
2013-02-15 04:00:00,44.4,28.0,30.13,NW,315,4.1,5.2,52,0.00,,,0.00,tws,2013-02-15 11:00:00,
2013-02-15 04:10:00,44.5,28.2,30.13,NW,315,3.7,4.4,52,0.00,,,0.00,tws,2013-02-15 11:10:00,
2013-02-15 04:20:00,44.5,28.1,30.12,WNW,292,3.5,4.1,52,0.00,,,0.00,tws,2013-02-15 11:20:00,
2013-02-15 04:30:00,44.6,28.2,30.12,NW,315,3.0,3.5,52,0.00,,,0.00,tws,2013-02-15 11:30:00,
2013-02-15 04:40:00,44.4,28.1,30.13,NW,315,2.7,3.1,52,0.00,,,0.00,tws,2013-02-15 11:40:00,
2013-02-15 04:50:00,44.2,27.9,30.12,WNW,292,3.6,4.4,52,0.00,,,0.00,tws,2013-02-15 11:50:00,
2013-02-15 05:00:00,44.3,27.2,30.13,WNW,292,3.3,4.1,50,0.00,,,0.00,tws,2013-02-15 12:00:00,
2013-02-15 05:10:00,44.5,27.0,30.12,NW,315,4.3,5.6,49,0.00,,,0.00,tws,2013-02-15 12:10:00,
2013-02-15 05:20:00,45.1,27.0,30.13,NW,315,3.9,4.5,48,0.00,,,0.00,tws,2013-02-15 12:20:00,
2013-02-15 05:30:00,45.6,26.8,30.12,NNW,337,4.6,6.1,47,0.00,,,0.00,tws,2013-02-15 12:30:00,
2013-02-15 05:40:00,46.1,26.7,30.13,NW,315,4.1,5.2,46,0.00,,,0.00,tws,2013-02-15 12:40:00,
2013-02-15 05:50:00,46.3,26.6,30.14,NW,315,4.4,5.6,45,0.00,,,0.00,tws,2013-02-15 12:50:00,
2013-02-15 06:00:00,46.2,26.5,30.14,NNW,337,3.0,4.8,45,0.00,,,0.00,tws,2013-02-15 13:00:00,
2013-02-15 06:10:00,45.8,26.7,30.14,NW,315,3.0,3.9,46,0.00,,,0.00,tws,2013-02-15 13:10:00,
2013-02-15 06:20:00,45.3,26.4,30.14,NW,315,3.3,4.0,47,0.00,,,0.00,tws,2013-02-15 13:20:00,
2013-02-15 06:30:00,44.9,26.2,30.15,NW,315,3.1,3.9,47,0.00,,,0.00,tws,2013-02-15 13:30:00,
2013-02-15 06:40:00,44.6,26.1,30.15,WNW,292,3.4,4.4,47,0.00,,,0.00,tws,2013-02-15 13:40:00,
2013-02-15 06:50:00,44.7,26.0,30.15,West,270,4.4,6.5,47,0.00,,,0.00,tws,2013-02-15 13:50:00,
2013-02-15 07:00:00,45.3,26.2,30.16,West,270,4.6,5.3,46,0.00,,,0.00,tws,2013-02-15 14:00:00,
2013-02-15 07:10:00,45.9,26.3,30.17,WNW,292,5.0,5.6,45,0.00,,,0.00,tws,2013-02-15 14:10:00,
2013-02-15 07:20:00,46.2,26.4,30.17,NNW,337,4.9,7.2,45,0.00,,,0.00,tws,2013-02-15 14:20:00,
2013-02-15 07:30:00,46.4,26.3,30.17,NW,315,4.7,6.1,45,0.00,,,0.00,tws,2013-02-15 14:30:00,
2013-02-15 07:40:00,46.4,26.2,30.17,NW,315,4.4,5.2,45,0.00,,,0.00,tws,2013-02-15 14:40:00,
2013-02-15 07:50:00,46.3,26.1,30.17,NW,315,5.1,6.7,44,0.00,,,0.00,tws,2013-02-15 14:50:00,
2013-02-15 08:00:00,46.7,26.3,30.18,WNW,292,7.0,8.5,44,0.00,,,0.00,tws,2013-02-15 15:00:00,
2013-02-15 08:10:00,47.3,26.6,30.18,NW,315,7.2,10.1,44,0.00,,,0.00,tws,2013-02-15 15:10:00,
2013-02-15 08:20:00,47.9,26.9,30.19,NW,315,5.2,6.5,43,0.00,,,0.00,tws,2013-02-15 15:20:00,
2013-02-15 08:30:00,48.3,27.2,30.20,NW,315,5.1,7.0,43,0.00,,,0.00,tws,2013-02-15 15:30:00,
2013-02-15 08:40:00,48.8,27.6,30.20,NW,315,4.2,5.5,43,0.00,,,0.00,tws,2013-02-15 15:40:00,
2013-02-15 08:50:00,49.3,28.4,30.19,West,270,4.1,5.2,44,0.00,,,0.00,tws,2013-02-15 15:50:00,
2013-02-15 09:00:00,49.8,28.8,30.20,North,0,2.8,3.6,43,0.00,,,0.00,tws,2013-02-15 16:00:00,
2013-02-15 09:10:00,50.6,29.3,30.20,NW,315,3.5,5.1,43,0.00,,,0.00,tws,2013-02-15 16:10:00,
2013-02-15 09:20:00,51.8,29.9,30.20,WNW,292,3.3,4.7,42,0.00,,,0.00,tws,2013-02-15 16:20:00,
2013-02-15 09:30:00,53.0,30.6,30.20,NNW,337,2.1,3.9,41,0.00,,,0.00,tws,2013-02-15 16:30:00,
2013-02-15 09:40:00,54.1,31.3,30.21,East,90,2.1,2.9,41,0.00,,,0.00,tws,2013-02-15 16:40:00,
2013-02-15 09:50:00,54.8,32.6,30.21,ENE,67,1.6,2.9,42,0.00,,,0.00,tws,2013-02-15 16:50:00,
2013-02-15 10:00:00,55.4,33.2,30.20,NE,45,2.3,3.0,42,0.00,,,0.00,tws,2013-02-15 17:00:00,
2013-02-15 10:10:00,56.3,33.0,30.21,East,90,2.9,3.6,41,0.00,,,0.00,tws,2013-02-15 17:10:00,
2013-02-15 10:20:00,57.3,33.7,30.21,NE,45,2.4,3.5,40,0.00,,,0.00,tws,2013-02-15 17:20:00,
2013-02-15 10:30:00,57.9,33.8,30.21,NW,315,1.4,2.0,39,0.00,,,0.00,tws,2013-02-15 17:30:00,
2013-02-15 10:40:00,58.6,34.3,30.21,SE,135,1.7,2.3,39,0.00,,,0.00,tws,2013-02-15 17:40:00,
2013-02-15 10:50:00,59.2,34.0,30.22,ENE,67,1.8,2.8,38,0.00,,,0.00,tws,2013-02-15 17:50:00,
2013-02-15 11:00:00,59.6,34.0,30.22,NE,45,2.7,4.5,37,0.00,,,0.00,tws,2013-02-15 18:00:00,
2013-02-15 11:10:00,60.0,34.2,30.22,East,90,2.8,3.5,37,0.00,,,0.00,tws,2013-02-15 18:10:00,
2013-02-15 11:20:00,60.4,33.6,30.22,SE,135,3.8,6.7,36,0.00,,,0.00,tws,2013-02-15 18:20:00,
2013-02-15 11:30:00,60.7,33.0,30.22,South,180,4.1,5.3,34,0.00,,,0.00,tws,2013-02-15 18:30:00,
2013-02-15 11:40:00,60.7,31.5,30.22,South,180,4.7,6.5,32,0.00,,,0.00,tws,2013-02-15 18:40:00,
2013-02-15 11:50:00,60.7,31.1,30.22,SSE,157,4.5,5.8,32,0.00,,,0.00,tws,2013-02-15 18:50:00,
2013-02-15 12:00:00,61.0,31.5,30.23,East,90,4.1,5.2,32,0.00,,,0.00,tws,2013-02-15 19:00:00,
2013-02-15 12:10:00,61.2,31.9,30.22,SE,135,2.8,3.8,32,0.00,,,0.00,tws,2013-02-15 19:10:00,
2013-02-15 12:20:00,61.7,32.1,30.22,SE,135,3.0,3.9,32,0.00,,,0.00,tws,2013-02-15 19:20:00,
2013-02-15 12:30:00,62.3,32.3,30.22,SE,135,2.4,3.7,32,0.00,,,0.00,tws,2013-02-15 19:30:00,
2013-02-15 12:40:00,62.5,31.9,30.21,ESE,112,2.6,4.4,31,0.00,,,0.00,tws,2013-02-15 19:40:00,
2013-02-15 12:50:00,63.3,32.5,30.21,South,180,3.8,5.3,31,0.00,,,0.00,tws,2013-02-15 19:50:00,
2013-02-15 13:00:00,64.5,32.5,30.20,SSE,157,3.8,5.7,29,0.00,,,0.00,tws,2013-02-15 20:00:00,
2013-02-15 13:10:00,65.2,32.3,30.20,SE,135,4.3,6.1,28,0.00,,,0.00,tws,2013-02-15 20:10:00,
2013-02-15 13:20:00,65.4,31.9,30.19,SSE,157,4.4,6.8,28,0.00,,,0.00,tws,2013-02-15 20:20:00,
2013-02-15 13:30:00,65.7,32.1,30.19,ESE,112,4.3,6.2,28,0.00,,,0.00,tws,2013-02-15 20:30:00,
2013-02-15 13:40:00,66.2,32.0,30.20,NE,45,3.5,6.0,27,0.00,,,0.00,tws,2013-02-15 20:40:00,
2013-02-15 13:50:00,66.8,32.3,30.19,West,270,3.3,4.5,27,0.00,,,0.00,tws,2013-02-15 20:50:00,
2013-02-15 14:00:00,67.4,32.3,30.19,NW,315,2.5,4.6,26,0.00,,,0.00,tws,2013-02-15 21:00:00,
2013-02-15 14:10:00,68.1,32.4,30.18,SW,225,2.8,4.3,26,0.00,,,0.00,tws,2013-02-15 21:10:00,
2013-02-15 14:20:00,68.7,32.6,30.18,SSE,157,3.2,6.1,25,0.00,,,0.00,tws,2013-02-15 21:20:00,
2013-02-15 14:30:00,69.1,32.5,30.17,SW,225,4.2,6.7,25,0.00,,,0.00,tws,2013-02-15 21:30:00,
2013-02-15 14:40:00,69.1,32.3,30.17,South,180,3.7,5.5,25,0.00,,,0.00,tws,2013-02-15 21:40:00,
2013-02-15 14:50:00,69.2,32.6,30.17,South,180,4.0,6.2,25,0.00,,,0.00,tws,2013-02-15 21:50:00,
2013-02-15 15:00:00,69.0,32.2,30.16,South,180,4.5,5.7,25,0.00,,,0.00,tws,2013-02-15 22:00:00,
2013-02-15 15:10:00,68.8,32.3,30.17,SW,225,4.2,5.6,25,0.00,,,0.00,tws,2013-02-15 22:10:00,
2013-02-15 15:20:00,69.1,32.5,30.17,SW,225,4.0,6.1,25,0.00,,,0.00,tws,2013-02-15 22:20:00,
2013-02-15 15:30:00,69.7,33.0,30.17,SW,225,3.5,5.0,25,0.00,,,0.00,tws,2013-02-15 22:30:00,
2013-02-15 15:40:00,70.2,33.1,30.17,West,270,3.6,5.9,25,0.00,,,0.00,tws,2013-02-15 22:40:00,
2013-02-15 15:50:00,70.3,33.3,30.17,SW,225,1.7,2.7,25,0.00,,,0.00,tws,2013-02-15 22:50:00,
2013-02-15 16:00:00,71.0,34.1,30.16,SE,135,3.6,5.0,25,0.00,,,0.00,tws,2013-02-15 23:00:00,
2013-02-15 16:10:00,71.2,33.6,30.16,ESE,112,3.5,4.3,24,0.00,,,0.00,tws,2013-02-15 23:10:00,
2013-02-15 16:20:00,71.7,33.8,30.16,SW,225,1.0,2.3,24,0.00,,,0.00,tws,2013-02-15 23:20:00,
2013-02-15 16:30:00,72.4,33.7,30.16,South,180,1.7,3.0,23,0.00,,,0.00,tws,2013-02-15 23:30:00,
2013-02-15 16:40:00,72.6,34.1,30.16,NE,45,2.4,3.8,24,0.00,,,0.00,tws,2013-02-15 23:40:00,
2013-02-15 16:50:00,72.4,34.5,30.15,South,180,3.0,5.0,24,0.00,,,0.00,tws,2013-02-15 23:50:00,
2013-02-15 17:00:00,72.0,33.8,30.16,WNW,292,2.0,3.6,24,0.00,,,0.00,tws,2013-02-16 00:00:00,
2013-02-15 17:10:00,72.1,33.2,30.16,East,90,3.8,4.5,23,0.00,,,0.00,tws,2013-02-16 00:10:00,
2013-02-15 17:20:00,72.0,29.1,30.16,NNW,337,7.1,9.5,20,0.00,,,0.00,tws,2013-02-16 00:20:00,
2013-02-15 17:30:00,70.8,27.0,30.15,NW,315,7.7,10.5,19,0.00,,,0.00,tws,2013-02-16 00:30:00,
2013-02-15 17:40:00,69.5,25.9,30.16,NW,315,6.0,8.5,19,0.00,,,0.00,tws,2013-02-16 00:40:00,
2013-02-15 17:50:00,68.4,25.5,30.16,NW,315,5.6,6.8,19,0.00,,,0.00,tws,2013-02-16 00:50:00,
2013-02-15 18:00:00,67.5,24.6,30.16,NW,315,5.4,6.4,19,0.00,,,0.00,tws,2013-02-16 01:00:00,
2013-02-15 18:10:00,66.7,25.0,30.16,West,270,4.7,6.4,20,0.00,,,0.00,tws,2013-02-16 01:10:00,
2013-02-15 18:20:00,65.8,24.7,30.17,WNW,292,4.7,5.4,20,0.00,,,0.00,tws,2013-02-16 01:20:00,
2013-02-15 18:30:00,64.9,24.9,30.17,NW,315,4.6,6.4,21,0.00,,,0.00,tws,2013-02-16 01:30:00,
2013-02-15 18:40:00,64.1,24.8,30.18,NW,315,4.7,5.1,22,0.00,,,0.00,tws,2013-02-16 01:40:00,
2013-02-15 18:50:00,63.4,24.0,30.17,NW,315,4.6,6.2,21,0.00,,,0.00,tws,2013-02-16 01:50:00,
2013-02-15 19:00:00,62.7,23.4,30.17,WNW,292,5.4,6.3,21,0.00,,,0.00,tws,2013-02-16 02:00:00,
2013-02-15 19:10:00,62.0,22.6,30.18,WNW,292,5.1,5.9,21,0.00,,,0.00,tws,2013-02-16 02:10:00,
2013-02-15 19:20:00,61.5,22.3,30.18,WNW,292,4.9,5.9,21,0.00,,,0.00,tws,2013-02-16 02:20:00,
2013-02-15 19:30:00,61.0,21.5,30.19,NW,315,3.8,4.8,21,0.00,,,0.00,tws,2013-02-16 02:30:00,
2013-02-15 19:40:00,60.4,21.3,30.20,NW,315,4.6,5.5,21,0.00,,,0.00,tws,2013-02-16 02:40:00,
2013-02-15 19:50:00,59.8,21.4,30.19,NW,315,4.6,5.4,22,0.00,,,0.00,tws,2013-02-16 02:50:00,
2013-02-15 20:00:00,59.3,21.2,30.21,NW,315,4.9,5.8,22,0.00,,,0.00,tws,2013-02-16 03:00:00,
2013-02-15 20:10:00,58.8,20.9,30.20,West,270,5.7,7.0,22,0.00,,,0.00,tws,2013-02-16 03:10:00,
2013-02-15 20:20:00,58.4,21.0,30.20,West,270,7.2,8.7,23,0.00,,,0.00,tws,2013-02-16 03:20:00,
2013-02-15 20:30:00,58.0,20.6,30.20,SW,225,6.9,8.7,23,0.00,,,0.00,tws,2013-02-16 03:30:00,
2013-02-15 20:40:00,57.7,20.2,30.21,West,270,6.9,8.3,22,0.00,,,0.00,tws,2013-02-16 03:40:00,
2013-02-15 20:50:00,57.5,20.3,30.20,NW,315,8.4,9.9,23,0.00,,,0.00,tws,2013-02-16 03:50:00,
2013-02-15 21:00:00,57.2,20.2,30.21,SW,225,8.3,9.9,23,0.00,,,0.00,tws,2013-02-16 04:00:00,
2013-02-15 21:10:00,57.0,20.2,30.22,WNW,292,7.0,8.5,23,0.00,,,0.00,tws,2013-02-16 04:10:00,
2013-02-15 21:20:00,56.6,20.2,30.22,WSW,247,5.5,7.1,23,0.00,,,0.00,tws,2013-02-16 04:20:00,
2013-02-15 21:30:00,56.2,20.0,30.23,ENE,67,3.4,6.4,24,0.00,,,0.00,tws,2013-02-16 04:30:00,
2013-02-15 21:40:00,55.6,20.7,30.24,North,0,3.1,4.2,25,0.00,,,0.00,tws,2013-02-16 04:40:00,
2013-02-15 21:50:00,54.6,20.7,30.24,WNW,292,4.3,5.9,26,0.00,,,0.00,tws,2013-02-16 04:50:00,
2013-02-15 22:00:00,54.0,19.7,30.24,SW,225,6.0,7.8,25,0.00,,,0.00,tws,2013-02-16 05:00:00,
2013-02-15 22:10:00,54.2,19.6,30.24,North,0,6.4,8.0,25,0.00,,,0.00,tws,2013-02-16 05:10:00,
2013-02-15 22:20:00,54.5,19.2,30.24,WNW,292,6.0,7.8,24,0.00,,,0.00,tws,2013-02-16 05:20:00,
2013-02-15 22:30:00,54.7,19.1,30.25,NW,315,7.3,10.1,24,0.00,,,0.00,tws,2013-02-16 05:30:00,
2013-02-15 22:40:00,55.0,18.9,30.24,NW,315,8.6,11.4,23,0.00,,,0.00,tws,2013-02-16 05:40:00,
2013-02-15 22:50:00,55.3,19.2,30.25,NW,315,7.6,9.6,24,0.00,,,0.00,tws,2013-02-16 05:50:00,
2013-02-15 23:00:00,55.4,19.1,30.25,NW,315,8.6,10.0,23,0.00,,,0.00,tws,2013-02-16 06:00:00,
2013-02-15 23:10:00,55.4,19.1,30.25,NW,315,8.6,10.7,23,0.00,,,0.00,tws,2013-02-16 06:10:00,
2013-02-15 23:20:00,55.4,19.0,30.25,NNW,337,7.6,8.9,23,0.00,,,0.00,tws,2013-02-16 06:20:00,
2013-02-15 23:30:00,55.1,19.3,30.25,North,0,6.7,7.9,24,0.00,,,0.00,tws,2013-02-16 06:30:00,
2013-02-15 23:40:00,54.8,19.2,30.26,West,270,6.0,6.7,24,0.00,,,0.00,tws,2013-02-16 06:40:00,
2013-02-15 23:50:00,54.3,19.0,30.26,West,270,7.1,8.5,24,0.00,,,0.00,tws,2013-02-16 06:50:00,